User: anonymous   Login
Location: Unspecified
(0.0000°N, 0.0000°E)
Time: 02:52:21
(UTC+00:00)
Language:

TOPO 1 - Orbit

View from above orbital plane
View from above orbital plane
View from above satellite
View from above satellite

Ground track
Ground track

The orbit data is extracted from the following two-line orbital elements,

1  4363U 70025B   18020.21096623 -.00000035 +00000-0 +17019-4 0  9991
2  4363 100.0256 279.3894 0001531 326.6879 184.9982 13.46566489347990
Epoch (UTC): 20 January 2018 05:03:47
Eccentricity: 0.0001531
inclination: 100.0256°
perigee height: 1084 km
apogee height: 1086 km
right ascension of ascending node: 279.3894°
argument of perigee: 326.6879°
revolutions per day: 13.46566489
mean anomaly at epoch: 184.9982°
orbit number at epoch: 34799

The dashed part of the orbit path shows where the satellite is in the earth's shadow,  

DLR